EW5697 Weather Reports


Display with metric or nautical units.
time (UTC)temp
F
wind
direction
speed
MPH
gust
MPH
rain 1hr
in
rain 24hr
in
rain mn
in
humidity
%
barometer
mb
20260903143020 49 162 0.0 2.0 0.00 0.08 0.02 93 1016.1
20260903141513 49 122 0.0 9.0 0.01 0.08 0.02 93 1015.9
20260903140006 49 177 0.0 1.0 0.01 0.08 0.02 93 1015.7
20260903134505 49 183 0.0 1.0 0.01 0.08 0.02 93 1015.7
20260903133004 49 162 0.0 2.0 0.01 0.08 0.02 93 1015.6
20260903131503 49 151 0.0 1.0 0.00 0.07 0.01 93 1015.5
20260903130003 49 132 0.0 1.0 0.01 0.07 0.01 93 1015.5
20260903124500 49 137 0.0 5.0 0.01 0.07 0.01 93 1015.5
20260903123059 49 141 0.0 2.0 0.01 0.07 0.01 93 1015.6
20260903121559 49 161 0.0 8.0 0.01 0.07 0.01 93 1015.7
20260903120106 49 140 0.0 2.0 0.00 0.06 0.00 92 1015.6
20260903114556 49 147 0.0 6.0 0.00 0.06 0.00 92 1015.8
20260903113053 49 179 0.0 1.0 0.00 0.06 0.00 92 1015.8
20260903111552 50 105 0.0 3.0 0.00 0.06 0.00 92 1016.1
20260903110052 50 129 0.0 5.0 0.00 0.06 0.00 91 1016.2
20260903104552 50 143 0.0 2.0 0.00 0.06 0.00 91 1016.2
20260903103049 50 130 0.0 1.0 0.00 0.06 0.00 91 1016.2
20260903101553 50 176 0.0 1.0 0.00 0.06 0.00 91 1016.3
20260903100047 50 198 0.0 1.0 0.00 0.06 0.00 92 1016.2
20260903094547 50 132 0.0 3.0 0.00 0.06 0.00 92 1016.3
20260903093059 51 143 0.0 3.0 0.00 0.06 0.00 92 1016.5
20260903091542 51 150 0.0 1.0 0.00 0.06 0.00 92 1016.5
20260903090040 51 139 0.0 1.0 0.00 0.06 0.00 92 1016.6
20260903084540 51 178 0.0 8.0 0.00 0.06 0.00 92 1016.6
20260903083039 51 188 0.0 1.0 0.00 0.06 0.00 92 1016.8
20260903081541 51 153 0.0 1.0 0.00 0.06 0.00 92 1016.8
20260903080038 51 138 0.0 0.0 0.00 0.06 0.00 91 1016.8
20260903074537 51 147 0.0 4.0 0.00 0.06 0.00 91 1016.7
20260903073040 51 174 0.0 1.0 0.00 0.06 0.00 91 1016.8
20260903071537 51 122 0.0 1.0 0.00 0.06 0.00 91 1016.7
20260903070033 51 138 0.0 5.0 0.00 0.06 0.00 91 1016.7
20260903064539 51 140 0.0 1.0 0.00 0.06 0.06 91 1016.8
20260903063032 51 137 0.0 1.0 0.00 0.06 0.06 91 1016.8
20260903061541 51 126 0.0 1.0 0.00 0.06 0.06 91 1016.9
20260903060033 51 125 0.0 1.0 0.00 0.06 0.06 91 1017.2
20260903054530 51 160 0.0 4.0 0.00 0.06 0.06 91 1017.2
20260903053029 51 121 0.0 2.0 0.00 0.06 0.06 92 1017.2
20260903051530 51 162 0.0 4.0 0.00 0.06 0.06 92 1017.2
20260903050031 51 130 0.0 1.0 0.00 0.06 0.06 92 1017.3
20260903044527 51 158 0.0 13.0 0.00 0.06 0.06 92 1017.1
20260903043027 51 220 0.0 4.0 0.00 0.06 0.06 92 1016.7
20260903041536 51 133 0.0 2.0 0.00 0.06 0.06 92 1016.5
20260903040026 51 135 0.0 4.0 0.00 0.06 0.06 93 1016.2
20260903034531 51 126 0.0 1.0 0.01 0.06 0.06 92 1015.9
20260903033037 51 139 0.0 1.0 0.01 0.06 0.06 92 1015.9
20260903031522 51 138 0.0 0.0 0.01 0.06 0.06 92 1015.7
20260903030021 51 138 0.0 1.0 0.02 0.06 0.06 92 1015.6
20260903024521 51 128 0.0 5.0 0.01 0.05 0.05 92 1015.7
20260903023020 51 139 0.0 9.0 0.01 0.05 0.05 92 1015.7
20260903021519 51 141 0.0 1.0 0.01 0.05 0.05 91 1015.6
20260903020018 52 162 0.0 4.0 0.01 0.04 0.04 91 1015.9
20260903014518 52 202 0.0 2.0 0.01 0.04 0.04 91 1016.0
20260903013022 52 141 0.0 0.0 0.01 0.04 0.04 91 1016.0
20260903011516 52 135 0.0 2.0 0.02 0.04 0.04 90 1016.2
20260903010016 53 139 0.0 7.0 0.01 0.03 0.03 90 1016.1
20260903004528 53 115 0.0 5.0 0.01 0.03 0.03 90 1016.3
20260903003015 53 162 0.0 3.0 0.01 0.03 0.03 90 1016.0
20260903001514 52 128 0.0 2.0 0.00 0.02 0.02 88 1016.2
20260903000016 53 159 0.0 11.0 0.00 0.02 0.02 88 1016.3
20260902234513 53 117 0.0 3.0 0.00 0.02 0.02 88 1016.1
20260902233010 53 141 0.0 10.0 0.00 0.02 0.02 89 1016.3
20260902231513 53 165 0.0 9.0 0.00 0.02 0.02 89 1016.4
20260902230010 53 149 0.0 3.0 0.00 0.02 0.02 89 1016.7
20260902224508 52 143 0.0 6.0 0.00 0.02 0.02 88 1016.9
20260902223006 52 114 0.0 9.0 0.00 0.02 0.02 89 1016.9
20260902221505 52 138 0.0 10.0 0.00 0.02 0.02 89 1017.0
20260902220007 52 142 0.0 9.0 0.00 0.02 0.02 90 1017.1
20260902214504 52 122 0.0 1.0 0.00 0.02 0.02 89 1017.2
20260902213007 51 128 0.0 17.0 0.00 0.02 0.02 89 1017.5
20260902211505 51 180 0.0 4.0 0.00 0.02 0.02 89 1017.4
20260902210004 51 112 0.0 11.0 0.00 0.02 0.02 90 1017.2
20260902204501 51 160 0.0 19.0 0.00 0.02 0.02 90 1017.2
20260902203126 51 154 0.0 3.0 0.00 0.02 0.02 91 1016.9
20260902203003 51 108 0.0 3.0 0.00 0.02 0.02 91 1016.9
20260902201556 50 218 0.0 8.0 0.00 0.02 0.02 90 1017.0
20260902200059 50 135 0.0 10.0 0.00 0.02 0.02 91 1016.9
20260902194556 50 156 0.0 8.0 0.00 0.02 0.02 91 1017.0
20260902193057 49 188 0.0 10.0 0.00 0.02 0.02 91 1017.1
20260902191555 49 143 0.0 7.0 0.00 0.02 0.02 91 1017.3
20260902190051 48 125 0.0 19.0 0.00 0.02 0.02 92 1017.2
20260902184558 48 134 0.0 8.0 0.01 0.02 0.02 91 1017.2
20260902183056 48 185 0.0 17.0 0.01 0.02 0.02 91 1017.2
20260902181548 48 170 0.0 5.0 0.02 0.02 0.02 91 1017.0
20260902180045 48 241 0.0 14.0 0.02 0.02 0.02 91 1017.0
20260902174546 48 134 0.0 20.0 0.01 0.01 0.01 91 1016.9
20260902173042 49 212 0.0 12.0 0.01 0.01 0.01 90 1016.7
20260902171542 49 142 0.0 6.0 0.00 0.00 0.00 90 1016.7
20260902170045 49 137 0.0 3.0 0.00 0.00 0.00 90 1016.7
20260902164541 49 159 0.0 6.0 0.00 0.00 0.00 90 1016.5
20260902163050 49 18 0.0 4.0 0.00 0.00 0.00 90 1016.4
20260902161535 49 159 0.0 4.0 0.00 0.00 0.00 90 1015.9
20260902160035 49 148 0.0 10.0 0.00 0.00 0.00 90 1015.8
20260902154535 48 191 0.0 9.0 0.00 0.00 0.00 90 1015.7
20260902153032 48 151 0.0 4.0 0.00 0.00 0.00 91 1016.0
20260902151530 48 162 0.0 9.0 0.00 0.00 0.00 90 1016.1
20260902150029 48 120 0.0 1.0 0.00 0.00 0.00 90 1015.8
20260902144537 48 166 0.0 8.0 0.00 0.00 0.00 90 1015.9